{"data":{"norad_id":67122,"intl_designator":"2025-299W","name":"STARLINK-36188","alt_names":[],"object_type":"PAYLOAD","status":"ACTIVE","operator":null,"country":"US","launch_date":"2025-12-15","launch_site_code":"AFETR","launch_vehicle":null,"mission":null,"orbit_class":"UNKNOWN","rcs_meters":null,"size_class":null,"mass_kg":null,"dimensions":null,"purposes":["comms"],"wikipedia_slug":null,"has_3d_model":false,"image_url":null,"decayed_at":null,"tle_current":{"epoch":"2026-09-19T10:19:03.594144Z","epoch_age_seconds":171526,"freshness":"FRESH","line1":"1 67122U 25299W   26262.42990271  .00010802  00000+0  40154-3 0  9994","line2":"2 67122  43.0029 155.0784 0001953 271.3817  88.6810 15.27575398 42745","mean_motion":15.27575398,"eccentricity":0.0001953,"inclination_deg":43.0029,"raan_deg":155.0784,"arg_perigee_deg":271.3817,"mean_anomaly_deg":88.681,"bstar":0.00040154,"rev_number":4274,"period_min":94.267032703285,"perigee_km":481.722883782,"apogee_km":484.40286845361,"semimajor_km":6861.1998761178,"source":"CELESTRAK","updated_at":"2026-09-21T09:00:36.107761Z"}}}